Weather History for KGNT - August, 2013

Change the Weather History Date:

Sunday, August 18, 2013

  Actual Average Record
Temperature  
Mean Temperature 70 °F -  
Max Temperature 84 °F 83 °F 91 °F (1986)
Min Temperature 56 °F 51 °F 37 °F (2008)
Cooling Degree Days 5    
Growing Degree Days 20 (Base 50)    
Moisture  
Dew Point 48 °F    
Average Humidity 50    
Maximum Humidity 85    
Minimum Humidity 25    
Precipitation  
Precipitation 0.01 in - - ()
Sea Level Pressure  
Sea Level Pressure 30.32 in    
Wind  
Wind Speed 3 mph (NW)    
Max Wind Speed 14 mph    
Max Gust Speed 20 mph    
Visibility 10 miles    
Events Rain , Thunderstorm    
Averages and records for this station are not official NWS values.
T = Trace of Precipitation, MM = Missing Value Source: NWS Daily Summary

Daily Weather History Graph

Daily Weather History Graph

Search for Another Location

Airport or City:

Trip Planner

Search our weather history database for the weather conditions in past years. The results will help you decide how hot, cold, wet, or windy it might be!

Date:

Astronomy

Aug. 18, 2013 Rise Set
Actual Time 6:33 AM MDT 7:56 PM MDT
Civil Twilight 6:07 AM MDT 8:22 PM MDT
Nautical Twilight 5:35 AM MDT 8:54 PM MDT
Astronomical Twilight 5:01 AM MDT 9:27 PM MDT
Moon 6:02 PM MDT (8/18) 3:49 AM MDT (8/18)
Length of Visible Light 14h 15m
Length of Day
13h 22m
Waxing Gibbous, 92% of the Moon is Illuminated
Aug 18
Waxing Gibbous
Aug 20
Full
Aug 28
Last Quarter
Sep 5
New
Sep 12
First Quarter

Hourly Weather History & Observations

Time (MDT) Temp. Dew Point Humidity Pressure Visibility Wind Dir Wind Speed Gust Speed Precip Events Conditions
12:15 AM 64.9 °F 48.6 °F 55% 30.34 in 10.0 mi Calm Calm - N/A   Clear
12:35 AM 63.9 °F 49.1 °F 59% 30.35 in 10.0 mi Calm Calm - N/A   Clear
12:55 AM 63.0 °F 49.8 °F 62% 30.34 in 10.0 mi Calm Calm - N/A   Scattered Clouds
1:15 AM 63.1 °F 50.5 °F 63% 30.34 in 10.0 mi Calm Calm - N/A   Scattered Clouds
1:35 AM 62.6 °F 51.3 °F 66% 30.34 in 10.0 mi West 3.5 mph - N/A   Scattered Clouds
1:55 AM 62.1 °F 52.0 °F 70% 30.34 in 10.0 mi NW 6.9 mph - N/A   Mostly Cloudy
2:15 AM 61.9 °F 52.0 °F 70% 30.34 in 10.0 mi West 3.5 mph - N/A   Overcast
2:35 AM 62.4 °F 51.1 °F 66% 30.34 in 10.0 mi Calm Calm - N/A   Overcast
2:55 AM 62.1 °F 51.4 °F 68% 30.34 in 10.0 mi North 3.5 mph - N/A   Overcast
3:15 AM 62.4 °F 52.3 °F 70% 30.34 in 10.0 mi Calm Calm - N/A   Overcast
3:35 AM 60.3 °F 51.4 °F 73% 30.34 in 10.0 mi Calm Calm - N/A   Scattered Clouds
3:55 AM 59.5 °F 51.3 °F 74% 30.34 in 10.0 mi Calm Calm - N/A   Clear
4:15 AM 59.0 °F 51.3 °F 75% 30.34 in 10.0 mi Calm Calm - N/A   Mostly Cloudy
4:35 AM 59.9 °F 51.1 °F 73% 30.34 in 10.0 mi Calm Calm - N/A   Mostly Cloudy
4:55 AM 60.1 °F 51.1 °F 72% 30.34 in 10.0 mi Calm Calm - N/A   Scattered Clouds
5:15 AM 57.6 °F 51.8 °F 81% 30.34 in 10.0 mi Calm Calm - N/A   Scattered Clouds
5:35 AM 59.7 °F 50.9 °F 73% 30.35 in 10.0 mi Calm Calm - N/A   Scattered Clouds
5:55 AM 56.7 °F 51.4 °F 83% 30.35 in 10.0 mi Calm Calm - N/A   Clear
6:15 AM 56.7 °F 50.9 °F 81% 30.36 in 10.0 mi Calm Calm - N/A   Scattered Clouds
6:35 AM 56.1 °F 51.4 °F 84% 30.36 in 10.0 mi NW 3.5 mph - N/A   Mostly Cloudy
6:55 AM 56.3 °F 52.0 °F 85% 30.36 in 10.0 mi Calm Calm - N/A   Scattered Clouds
7:15 AM 56.3 °F 51.8 °F 85% 30.37 in 10.0 mi NW 5.8 mph - N/A   Clear
7:35 AM 57.4 °F 52.2 °F 83% 30.37 in 10.0 mi WNW 6.9 mph - N/A   Clear
7:55 AM 59.2 °F 53.2 °F 81% 30.37 in 10.0 mi WNW 6.9 mph - N/A   Clear
8:15 AM 61.0 °F 52.0 °F 72% 30.37 in 10.0 mi NW 5.8 mph - N/A   Clear
8:35 AM 62.4 °F 52.5 °F 70% 30.38 in 10.0 mi NNW 3.5 mph - N/A   Clear
8:55 AM 63.1 °F 52.7 °F 69% 30.38 in 10.0 mi Calm Calm - N/A   Clear
9:15 AM 65.5 °F 52.0 °F 62% 30.38 in 10.0 mi NE 3.5 mph - N/A   Clear
9:35 AM 66.6 °F 51.1 °F 57% 30.38 in 10.0 mi North 3.5 mph - N/A   Clear
9:55 AM 67.6 °F 50.2 °F 54% 30.38 in 10.0 mi Calm Calm - N/A   Clear
10:15 AM 69.6 °F 49.5 °F 49% 30.38 in 10.0 mi NNE 3.5 mph - N/A   Clear
10:35 AM 70.9 °F 49.5 °F 47% 30.38 in 10.0 mi NW 4.6 mph - N/A   Clear
10:55 AM 72.3 °F 50.2 °F 46% 30.37 in 10.0 mi WNW 4.6 mph - N/A   Clear
11:15 AM 74.3 °F 47.8 °F 39% 30.37 in 10.0 mi North 3.5 mph - N/A   Clear
11:35 AM 76.6 °F 46.4 °F 34% 30.37 in 10.0 mi Calm Calm - N/A   Clear
11:55 AM 77.2 °F 46.0 °F 33% 30.35 in 10.0 mi NE 6.9 mph - N/A   Clear
12:15 PM 77.4 °F 46.0 °F 33% 30.35 in 10.0 mi NE 6.9 mph - N/A   Clear
12:35 PM 79.5 °F 45.7 °F 30% 30.34 in 10.0 mi NNE 4.6 mph - N/A   Clear
12:55 PM 80.6 °F 43.7 °F 27% 30.32 in 10.0 mi Calm Calm - N/A   Clear
1:15 PM 82.2 °F 42.8 °F 25% 30.32 in 10.0 mi Calm Calm - N/A   Clear
1:35 PM 81.5 °F 43.3 °F 26% 30.32 in 10.0 mi South 3.5 mph - N/A   Scattered Clouds
1:55 PM 81.5 °F 46.0 °F 29% 30.31 in 10.0 mi NW 8.1 mph - N/A   Scattered Clouds
2:15 PM 76.3 °F 50.5 °F 40% 30.31 in 10.0 mi NW 10.4 mph - N/A Thunderstorm Scattered Clouds
2:35 PM 79.5 °F 47.3 °F 32% 30.31 in 10.0 mi NNW 8.1 mph - N/A Thunderstorm Scattered Clouds
2:55 PM 80.8 °F 47.3 °F 31% 30.29 in 10.0 mi NNW 10.4 mph - N/A   Scattered Clouds
3:15 PM 82.2 °F 46.8 °F 29% 30.29 in 10.0 mi NNW 12.7 mph - N/A   Scattered Clouds
3:35 PM 82.8 °F 46.9 °F 28% 30.28 in 10.0 mi NNW 6.9 mph - N/A   Clear
3:55 PM 82.8 °F 46.6 °F 28% 30.26 in 10.0 mi WSW 4.6 mph - N/A   Clear
4:15 PM 82.8 °F 45.1 °F 27% 30.26 in 10.0 mi North 4.6 mph - N/A   Clear
4:35 PM 83.1 °F 44.2 °F 25% 30.25 in 10.0 mi Calm Calm - N/A   Clear
4:55 PM 84.4 °F 44.4 °F 25% 30.24 in 10.0 mi Calm Calm - N/A   Clear
5:15 PM 82.0 °F 43.0 °F 25% 30.24 in 10.0 mi Calm Calm - N/A   Clear
5:35 PM 82.0 °F 44.6 °F 27% 30.24 in 10.0 mi Calm Calm - N/A   Scattered Clouds
5:55 PM 80.4 °F 46.4 °F 30% 30.24 in 1.5 mi Calm Calm - 0.01 in Rain Light Rain
6:15 PM 82.2 °F 49.1 °F 31% 30.23 in 10.0 mi ENE 4.6 mph - N/A   Mostly Cloudy
6:35 PM 83.3 °F 43.5 °F 25% 30.23 in 10.0 mi SSW 11.5 mph - N/A   Overcast
6:55 PM 82.0 °F 45.9 °F 28% 30.23 in 10.0 mi Calm Calm - N/A   Overcast
7:15 PM 80.4 °F 44.2 °F 28% 30.24 in 10.0 mi West 13.8 mph 19.6 mph N/A   Overcast
7:35 PM 77.4 °F 44.6 °F 31% 30.26 in 10.0 mi West 9.2 mph 18.4 mph N/A   Scattered Clouds
7:55 PM 75.7 °F 44.8 °F 33% 30.26 in 10.0 mi West 12.7 mph - N/A   Clear
8:15 PM 74.3 °F 45.1 °F 35% 30.28 in 10.0 mi WNW 6.9 mph - N/A   Clear
8:35 PM 70.9 °F 47.3 °F 43% 30.28 in 10.0 mi NW 5.8 mph - N/A   Clear
8:55 PM 73.2 °F 45.5 °F 37% 30.28 in 10.0 mi WSW 4.6 mph - N/A   Clear
9:15 PM 72.3 °F 45.3 °F 38% 30.29 in 10.0 mi NNE 3.5 mph - N/A   Clear
9:35 PM 70.7 °F 46.2 °F 42% 30.30 in 10.0 mi Calm Calm - N/A   Clear
9:55 PM 70.9 °F 45.1 °F 40% 30.31 in 10.0 mi North 4.6 mph - N/A   Clear
10:15 PM 68.9 °F 46.4 °F 44% 30.32 in 10.0 mi NNW 3.5 mph - N/A   Clear
10:35 PM 65.5 °F 48.0 °F 53% 30.32 in 10.0 mi Calm Calm - N/A   Mostly Cloudy
10:55 PM 68.0 °F 47.5 °F 48% 30.32 in 10.0 mi West 8.1 mph - N/A   Overcast
11:15 PM 67.6 °F 47.3 °F 48% 30.32 in 10.0 mi NNW 3.5 mph - N/A   Mostly Cloudy
11:35 PM 63.9 °F 49.6 °F 60% 30.32 in 10.0 mi WNW 4.6 mph - N/A   Scattered Clouds
11:55 PM 64.2 °F 49.1 °F 58% 30.33 in 10.0 mi Calm Calm - N/A   Clear